Cytokinetics Incorporated (CYTK) Insider Transactions

33.00 ↑0.00 (0.00%)
As of Market Close on January 14th, 2022.

Insider Transactions

Transaction DateOwnerRoleActionPriceTotalShares RemainingPrice SinceSource
2021-07-08Fady Ibraham MalikEVPSold 2 Shares$19.48$39069.40%Link
2021-07-06Robert I BlumCEOSold 5 Shares$20.13$101063.93%Link
2021-06-18Robert I. BlumCEOSold 5 Shares$21.37$107054.42%Link
2021-06-10Fady Ibraham MalikEVPSold 2 Shares$21.48$43053.63%Link
2021-06-03Robert I. BlumCEOSold 5 Shares$20.61$103060.12%Link
2021-06-01David CraggInsiderSold 14 Shares$21.63$303052.57%Link
2021-05-20Robert I. BlumCEOSold 5 Shares$23.71$119039.18%Link
2021-05-13Fady Ibraham MalikEVPSold 2 Shares$24.42$49035.14%Link
2021-05-07Robert I. BlumCEOSold 5 Shares$23.21$116042.18%Link
2021-04-30Robert I. BlumCEOSold 5 Shares$25.87$129027.56%Link
2021-04-27Sandford D SmithDirectorSold 9 Shares$27.76$250518.88%Link
2021-04-23Sandford D. SmithDirectorSold 5 Shares$26.5$133024.53%Link
2021-04-15Sandford D. SmithDirectorSold 10 Shares$25.23$252030.80%Link
2021-04-12Robert I. BlumCEOSold 5 Shares$23.56$118040.07%Link
2021-04-09Sandford D. SmithDirectorSold 27 Shares$23.93$646037.90%Link
2021-04-08Fady Ibraham MalikEVPSold 2 Shares$23.39$47041.09%Link
2021-04-01John T. HendersonDirectorSold 3 Shares$23.54$71040.19%Link
2021-03-22Robert I. BlumCEOSold 5 Shares$25.19$126031.00%Link
2021-03-19L Patrick GageDirectorSold 10 Shares$24.45$2453134.97%Link
2021-03-12L Patrick GageDirectorSold 10 Shares$21.22$2122855.51%Link
2021-03-11Fady Ibraham MalikEVPSold 2 Shares$19.9$40065.83%Link
2021-03-08Robert I. BlumCEOSold 5 Shares$19.49$97069.32%Link
2021-02-26Robert I. BlumCEOSold 5 Shares$19.33$97070.72%Link
2021-02-11Fady Ibraham MalikEVPSold 1 Shares$23.34$23041.39%Link
2021-02-10Robert I. BlumCEOSold 5 Shares$23.88$119038.19%Link
2021-01-29Robert I. BlumCEOSold 5 Shares$20.34$102062.24%Link
2021-01-20Robert I. BlumCEOSold 5 Shares$20.41$102061.69%Link
2021-01-14Fady Ibraham MalikEVPSold 12 Shares$19.25$231071.43%Link
2021-01-04Robert I. BlumCEOSold 5 Shares$20.23$101063.12%Link
2020-12-31John T HendersonDirectorSold 858 Shares$20.31$17,426162.48%Link
2020-12-16Robert I. BlumCEOSold 5 Shares$20.51$103060.90%Link
2020-12-15L Patrick GageDirectorSold 7 Shares$21$1472857.14%Link
2020-12-10Fady Ibraham MalikEVPSold 1 Shares$20.13$20063.93%Link
2020-12-09Bvf Partners L P/IlInsiderSold 430 Shares$18$7,740083.33%Link
2020-12-04Robert I. BlumCEOSold 5 Shares$17.36$87090.09%Link
2020-11-23Robert I. BlumCEOSold 5 Shares$15.73$790109.79%Link
2020-11-12Fady Ibraham MalikEVPSold 1 Shares$17.15$17092.42%Link
2020-11-10Robert I. BlumCEOSold 5 Shares$16.5$830100.00%Link
2020-10-29Robert I. BlumCEOSold 5 Shares$15.15$760117.82%Link
2020-10-13Robert I. BlumCEOSold 5 Shares$15.94$800107.03%Link
2020-10-08Fady Ibraham MalikEVPSold 1 Shares$17.45$17089.11%Link
2020-10-05Santo J CostaDirectorSold 15 Shares$30$4501510.00%Link
2020-10-05Ching JawCFOSold 27 Shares$30$810010.00%Link
2020-10-02Robert I. BlumCEOSold 5 Shares$22.53$113046.47%Link
2020-09-21Robert I. BlumCEOSold 5 Shares$20.97$105057.37%Link
2020-09-11Robert I. BlumCEOSold 5 Shares$22.95$115043.79%Link
2020-09-10Fady Ibraham MalikEVPSold 995 Shares$22.85$22,736044.42%Link
2020-09-04Robert I. BlumCEOSold 5 Shares$22.37$112047.52%Link
2020-08-21Ching JawCFOSold 25 Shares$25$625032.00%Link
2020-08-21Mark A SchlossbergSVPSold 10 Shares$25$2504032.00%Link

Discussions

Please log in or register to share your thoughts.